パンスターズ彗星

C/2016 N6 ( PanSTARRS )

English version
Home page
Updated on July 30, 2018

---------------------------------------------------------------------

・ プロフィール

発見日 2016年7月14日
発見光度 20.7等
発見者 Pan-STARRS 1 telescope (Haleakala)

・ 写真集

・ 軌道要素

Epoch 2018 July 21.0 TT = JDT 2458320.5
T 2018 July 18.21076 TT                                 MPCW
q   2.6690909            (2000.0)            P               Q
z  +0.0004659      Peri.  162.80541     -0.53334964     +0.08479238
 +/-0.0000002      Node   298.97619     +0.61778381     +0.71869784
e   0.9987566      Incl.  105.83226     +0.57782464     -0.69013308
From 1551 observations 2016 June 27-2018 Mar. 26, mean residual 0".4.

・ 星図

・ 光度変化

        m1 = 3.5 + 5 logΔ + 14.0 log r

---------------------------------------------------------------------

軌道要素はM.P.E.C. 2018-F152に掲載されたものです。
星図はステラナビゲータ Ver.10 (アストロアーツ) で作成したものです。
光度グラフはComet for Windowsで作成したものです。

---------------------------------------------------------------------

Copyright(C) Seiichi Yoshida (comet@aerith.net). All rights reserved.